Temperature
21 21 21 21 21 20 20 21 21 22 22 23 23 22 22 21 20 20 20 19 19 19 19 19 19 19 19 18 18 18 18 17 17 17 17 16 16 16 16 16 16 16 15 15
21 21 21 21 21 21 21 21 21 22 22 23 22 22 21 21 20 20 20 19 19 19 19 19 19 19 19 18 18 18 18 18 17 17 17 17 16 16 16 16 16 16 15 15
21 21 21 21 22 21 21 21 22 22 22 23 22 22 21 20 20 20 19 19 19 19 19 19 19 19 19 19 19 18 18 18 18 17 17 17 17 16 16 16 16 16 16 15
21 21 20 22 22 22 21 21 22 22 22 22 22 21 20 19 19 19 19 19 19 19 19 19 19 19 19 18 18 18 18 18 18 18 17 17 17 17 16 16 16 16 16 16
21 21 21 22 22 21 21 22 22 22 22 21 21 21 21 19 19 19 19 19 19 19 19 19 19 19 18 18 18 18 18 18 18 18 17 17 17 17 16 16 16 16 16 16
20 20 21 22 22 21 22 22 22 22 22 22 21 22 22 19 19 19 19 19 19 19 19 19 19 19 18 18 18 18 18 18 18 18 18 17 17 17 16 16 16 16 16 15
20 21 22 22 21 20 21 22 22 21 21 21 22 22 21 19 19 19 19 19 19 19 19 19 19 19 18 19 19 19 18 18 18 18 18 17 17 17 16 16 16 16 15 15
20 20 21 21 20 22 22 22 21 21 21 21 20 20 19 19 19 19 19 19 19 19 19 19 19 19 19 19 19 18 18 18 18 18 17 17 17 17 16 16 16 16 15 15
22 22 21 20 20 20 20 21 21 20 20 20 19 19 19 19 19 19 19 19 19 18 19 19 19 19 19 18 18 18 18 18 18 18 18 17 17 17 16 16 16 15 15 15
21 21 20 19 19 19 19 19 19 19 19 19 19 19 18 19 18 19 19 18 18 18 18 18 18 18 18 18 18 18 18 18 18 17 17 17 17 17 16 16 16 16 15 15
21 21 19 19 18 18 18 19 19 19 19 19 19 18 18 18 18 18 18 18 18 18 18 18 18 18 18 18 18 18 17 17 17 17 17 17 17 17 16 16 16 16 16 15
21 21 21 20 19 18 18 18 18 18 18 18 18 18 18 18 18 18 18 18 18 18 18 17 17 18 18 18 18 17 17 17 17 17 17 16 16 16 16 16 16 16 16 15
19 18 19 18 18 18 18 18 18 18 18 18 18 18 18 18 17 18 18 18 18 17 17 17 17 17 17 17 17 17 16 16 16 16 16 16 16 16 16 16 16 16 15 15
16 17 17 17 17 17 17 17 17 17 18 18 18 18 17 17 17 17 17 17 17 17 17 17 17 17 17 17 16 16 16 16 16 16 16 16 16 15 15 15 15 15 15 15
15 16 16 16 16 16 16 17 17 17 17 17 17 17 17 17 17 17 16 16 16 16 16 16 16 16 16 16 16 16 15 15 15 15 15 15 15 15 14 14 14 14 14 14
15 15 15 15 16 16 16 16 16 16 16 16 16 16 16 16 16 16 16 16 16 16 16 16 16 16 16 16 16 15 15 15 15 15 15 15 14 14 14 14 13 13 13 14
14 14 14 15 15 15 15 15 15 15 15 15 16 16 16 16 15 15 15 15 15 15 15 15 15 15 15 15 15 15 14 14 14 14 14 14 14 14 13 13 13 13 13 13
15 15 15 15 15 15 15 15 15 15 15 15 15 15 15 15 15 14 14 14 14 14 14 14 14 14 14 14 14 14 14 14 14 13 13 13 13 13 13 13 12 12 12 12
14 14 14 14 14 14 14 14 14 14 14 14 14 14 14 14 14 14 14 13 14 14 13 14 14 14 14 14 14 14 13 13 13 13 13 13 13 12 12 12 12 11 11 11
13 13 13 13 13 14 14 14 14 14 13 14 13 13 13 13 13 13 13 13 13 13 13 13 13 13 13 13 13 13 13 13 12 12 12 12 12 12 11 11 11 11 10 10
12 12 13 13 13 13 13 13 13 13 13 13 13 13 13 12 12 12 12 12 12 12 12 12 12 12 12 12 12 12 12 12 12 11 11 11 11 11 11 10 10 10 10 9
11 11 11 12 12 12 12 12 12 12 12 12 12 12 12 12 12 12 12 12 11 11 11 11 11 12 12 12 11 11 11 11 11 10 10 10 10 10 10 9 9 9 9 9
10 10 11 11 11 11 11 11 11 11 11 11 11 11 11 11 11 11 11 11 11 11 11 11 11 11 11 11 10 10 10 10 9 9 9 9 9 9 9 9 8 8 8 8
9 10 10 10 10 10 10 10 10 10 10 10 10 10 10 10 10 10 10 10 10 10 10 10 10 10 10 10 9 9 9 9 9 8 8 8 8 8 8 8 7 7 7 7
9 9 9 9 9 10 9 9 9 9 9 9 9 9 10 10 10 10 9 9 9 9 9 9 9 9 9 9 9 8 8 8 8 8 7 7 7 7 7 7 6 6 6 6
8 8 8 8 9 9 9 8 8 8 9 8 8 9 9 9 9 9 9 9 9 9 9 8 8 8 8 8 8 8 7 7 7 7 7 6 6 6 6 6 5 5 5 5
7 7 7 7 8 8 8 8 8 8 8 8 8 8 8 8 8 8 8 8 8 8 8 7 7 7 7 7 7 7 6 6 6 6 6 5 5 5 5 5 4 4 4 4
Wind_Speed
7 4 5 8 10 12 13 12 10 9 9 9 7 6 4 4 6 8 11 13 15 16 15 15 15 14 15 14 13 13 13 12 11 10 9 8 8 7 6 6 6 5 5 5
7 6 7 9 10 12 14 14 14 13 12 9 6 4 3 5 7 9 11 13 14 15 16 16 16 15 15 15 14 14 13 12 11 11 10 9 9 8 8 7 6 6 6 5
6 5 6 8 9 11 11 12 12 12 10 7 4 3 3 4 7 9 10 12 14 15 15 16 16 16 16 16 15 14 14 12 11 11 10 10 9 9 8 7 7 6 6 5
5 5 6 2 1 6 9 11 11 11 9 6 5 3 2 4 6 8 9 11 13 13 14 14 14 15 15 15 15 15 14 13 12 11 11 10 10 9 9 8 7 6 6 6
6 6 6 4 3 4 6 6 7 10 8 5 4 3 2 2 5 6 7 9 10 11 12 13 14 14 14 15 15 15 14 13 13 12 12 11 11 11 9 8 7 7 6 6
7 7 5 2 3 3 5 4 2 6 7 7 7 4 2 3 4 5 6 7 9 10 11 12 12 13 14 14 14 15 14 13 13 12 12 12 12 10 9 8 7 6 6 6
10 8 6 2 3 5 5 0 1 3 5 8 7 3 3 4 5 5 6 7 9 10 10 11 12 13 14 14 14 13 12 12 12 12 12 11 10 9 9 8 7 7 7 6
9 9 6 4 6 6 1 2 1 3 4 6 6 4 5 5 4 5 6 7 8 9 9 9 11 12 12 12 11 10 10 11 11 11 10 9 9 9 9 8 8 8 7 6
7 5 1 4 4 2 2 2 1 3 4 6 6 5 5 5 5 5 6 7 8 9 9 9 9 10 11 10 9 10 10 10 10 10 9 9 9 10 9 8 7 7 7 7
6 6 4 3 3 3 2 1 0 2 4 6 7 6 6 6 5 5 6 7 7 8 9 8 8 8 8 8 9 10 10 9 9 9 9 9 7 8 8 8 8 8 7 7
7 6 4 4 4 3 1 2 3 4 4 5 7 6 6 6 6 6 6 7 7 7 7 7 7 7 6 7 9 9 9 8 8 7 7 8 7 6 8 7 7 7 7 7
8 7 6 5 4 4 3 3 4 5 6 5 6 6 6 6 6 6 7 7 7 7 6 6 6 6 6 6 8 9 8 7 6 6 6 6 6 5 2 2 3 4 3 4
4 3 3 3 3 4 4 5 5 6 6 6 6 6 7 7 6 7 7 7 7 6 6 6 6 6 5 6 7 8 7 6 5 5 6 6 6 6 5 3 3 4 5 5
4 4 4 5 5 5 6 7 7 7 6 6 6 7 7 7 7 7 6 6 6 6 6 6 5 5 4 5 6 7 6 6 5 5 5 5 5 5 5 5 4 3 5 7
5 5 4 5 7 7 7 8 8 7 7 7 6 7 7 7 7 7 6 6 7 7 6 6 5 4 4 5 6 6 5 4 4 4 4 4 4 4 4 5 4 3 3 4
6 5 6 7 8 7 7 7 7 7 6 7 7 7 7 7 7 7 6 6 7 7 5 5 4 4 4 5 5 5 4 4 4 4 4 4 4 4 4 4 4 3 3 3
9 8 8 8 8 7 6 6 6 6 6 7 7 7 8 8 8 7 6 6 6 6 5 5 4 4 4 5 5 4 4 5 5 4 4 4 4 4 3 3 3 3 3 2
8 8 8 8 8 7 6 6 6 6 7 7 8 8 8 8 8 7 6 6 6 6 5 4 4 4 4 4 4 3 4 4 4 4 3 3 3 3 3 3 3 3 2 2
5 6 7 7 7 7 7 6 6 7 7 8 8 8 7 7 7 7 6 6 6 5 4 4 3 4 4 3 3 3 3 3 3 3 3 3 3 3 3 3 3 3 3 2
6 7 7 7 7 7 7 7 8 8 7 8 9 8 8 7 7 7 6 6 4 3 3 3 3 3 3 3 3 3 3 3 3 3 2 2 2 2 2 2 2 2 2 2
8 8 8 9 9 8 8 8 8 8 8 8 8 8 8 7 6 6 6 5 4 4 4 3 3 3 3 3 4 3 3 2 2 2 2 2 2 2 2 2 2 2 2 2
8 9 9 9 10 9 7 7 8 8 8 7 7 7 7 7 6 5 5 4 3 3 3 3 3 4 4 3 3 3 2 2 2 1 1 1 1 1 1 1 2 2 2 2
8 9 9 9 10 9 9 8 7 7 7 7 7 6 6 5 4 4 4 3 3 3 3 3 5 5 4 2 2 2 2 2 1 1 1 0 0 1 1 1 1 2 2 2
8 8 9 9 9 10 9 7 7 6 7 6 5 5 5 5 4 4 4 4 4 3 3 5 6 4 3 2 2 2 2 1 1 0 0 0 0 1 1 1 1 2 2 2
8 9 9 9 8 7 8 8 8 7 7 6 6 5 4 4 4 4 4 4 4 4 4 5 5 3 2 2 2 2 1 1 1 1 1 1 1 1 1 1 1 2 2 2
8 7 7 7 6 6 6 6 6 5 5 6 5 4 4 4 5 4 4 5 5 5 4 3 3 2 2 2 2 2 2 2 1 1 1 1 1 2 2 2 2 2 2 2
8 7 6 6 5 5 5 5 6 5 5 6 6 5 5 5 5 5 5 4 4 4 3 3 3 3 3 3 2 2 2 1 1 1 1 2 2 2 2 2 2 2 2 3
Wind_Direction
253 256 241 238 229 220 228 242 253 265 272 281 293 285 261 218 190 183 181 181 182 182 182 181 182 186 184 182 181 181 181 185 185 182 179 179 175 177 175 173 173 169 169 166
238 237 243 249 241 233 235 243 250 262 270 277 280 268 234 199 187 186 185 185 185 185 182 183 183 185 184 183 183 184 185 187 183 182 178 181 181 180 180 180 180 176 181 176
238 227 246 250 237 229 230 236 242 250 257 268 263 253 238 204 198 194 190 187 185 186 186 186 185 186 186 185 182 185 187 187 182 184 181 184 180 180 183 185 183 186 190 185
245 229 242 247 185 227 232 241 239 248 258 260 251 243 235 213 201 196 190 186 187 187 187 188 185 186 185 181 183 186 188 187 184 184 183 181 182 185 187 185 185 190 193 193
233 238 255 251 214 208 222 249 237 237 239 227 204 179 166 187 195 194 188 184 183 185 186 185 183 182 180 181 184 187 190 190 188 187 186 186 189 192 188 187 189 191 189 194
226 234 245 225 140 193 219 236 222 223 218 200 186 184 166 157 177 178 174 175 175 177 178 178 178 177 179 181 184 190 193 192 190 191 190 192 193 191 186 188 190 189 189 197
228 235 247 242 153 180 212 97 100 194 193 185 190 171 127 142 153 160 164 164 167 169 171 173 171 174 180 183 189 191 188 187 187 191 194 194 191 187 184 185 187 193 191 195
217 226 232 149 165 199 295 25 135 158 164 170 167 147 135 141 148 145 151 156 160 161 163 164 169 174 180 188 187 179 178 182 186 189 189 187 184 184 184 183 187 194 198 198
214 222 169 170 210 258 300 273 173 151 149 155 152 146 143 142 140 135 139 146 152 152 152 156 168 178 182 182 174 172 174 179 183 184 186 185 183 182 184 188 197 200 201 204
219 224 219 226 240 249 252 256 187 157 149 148 146 141 136 131 128 132 135 139 144 146 148 152 162 176 180 169 169 171 175 178 179 183 183 184 185 188 191 194 200 204 205 208
220 220 208 217 220 211 191 137 129 137 141 144 141 137 135 130 128 130 134 138 141 146 148 150 155 161 165 166 169 171 173 174 176 180 183 185 187 196 201 203 207 207 207 207
216 207 207 204 188 177 161 144 139 136 129 128 134 132 128 123 123 127 130 134 137 140 142 146 149 151 153 162 170 171 172 173 174 176 181 184 183 184 176 225 176 207 231 229
234 199 204 170 155 160 154 141 132 127 124 123 122 122 120 117 120 122 124 129 136 139 139 140 142 141 146 158 167 172 172 172 172 177 179 184 187 189 189 183 179 202 211 221
196 166 171 168 157 149 139 132 122 112 109 112 117 117 115 113 113 114 118 122 127 129 129 131 132 131 140 154 163 169 170 164 167 174 180 184 189 194 198 196 197 206 205 206
204 210 183 152 141 138 135 133 126 116 111 108 111 115 117 116 113 110 111 116 119 118 120 124 125 125 134 147 156 162 163 163 166 169 173 178 182 190 197 201 206 202 191 176
181 164 156 154 148 143 141 141 136 130 124 117 113 113 115 115 112 108 108 116 118 116 117 119 117 121 134 143 146 151 152 140 152 162 165 170 179 187 194 198 203 203 202 193
171 172 167 163 158 154 151 150 145 140 133 126 119 116 115 114 111 106 104 107 107 105 107 111 114 118 130 141 145 148 150 146 150 162 167 171 178 187 191 196 202 206 208 185
197 188 180 174 166 159 153 147 144 140 136 130 126 122 120 118 115 110 107 107 104 97 90 96 105 116 123 134 142 146 152 153 162 169 169 174 181 189 194 197 205 211 213 187
173 168 164 164 164 158 152 149 145 138 133 133 130 123 117 114 113 111 109 107 102 95 80 85 94 119 121 123 134 147 151 151 155 162 167 162 180 191 198 206 213 217 215 207
156 152 148 144 146 147 143 138 136 133 133 133 128 122 116 114 114 113 108 98 86 80 78 77 102 111 117 119 129 138 143 150 155 158 161 172 186 196 204 215 224 228 227 228
147 143 140 137 134 134 135 134 133 131 131 132 131 127 121 118 117 116 110 98 79 71 77 77 88 95 103 108 126 127 134 141 148 152 160 174 187 198 208 216 228 239 243 245
146 143 140 137 134 132 128 126 127 127 127 127 126 125 124 121 116 108 99 98 89 67 78 84 84 77 80 98 114 117 120 125 135 144 151 165 190 215 233 242 247 254 257 259
142 139 138 138 135 130 122 119 122 124 127 130 131 131 127 121 122 120 111 92 91 74 76 81 81 82 83 103 107 113 116 116 119 130 135 153 207 241 253 253 259 260 262 266
135 133 132 131 129 124 120 116 115 118 121 121 124 128 126 119 105 94 97 93 77 79 85 89 93 87 85 94 97 100 102 101 100 91 58 16 327 296 292 283 278 279 280 285
133 131 130 131 129 124 122 122 120 118 116 115 114 111 108 107 111 105 99 97 89 87 94 94 90 84 92 91 90 87 82 70 56 32 17 351 325 312 305 299 297 296 294 293
130 130 130 132 129 128 131 132 132 132 130 125 115 107 102 100 102 102 99 99 91 85 86 90 88 89 85 83 82 79 75 73 64 37 7 344 325 324 323 325 321 318 313 309
121 119 119 119 123 130 136 138 138 137 136 133 125 117 112 109 106 103 99 96 92 87 84 82 80 79 78 76 72 65 56 45 34 20 4 354 348 343 339 332 329 325 320 315
Height
1501 1502 1504 1505 1506 1508 1509 1506 1506 1501 1500 1496 1496 1497 1499 1501 1503 1505 1508 1512 1516 1520 1524 1529 1534 1539 1544 1548 1552 1555 1559 1562 1565 1568 1570 1572 1574 1576 1577 1578 1579 1580 1581 1581
1502 1501 1502 1503 1501 1502 1503 1502 1501 1499 1498 1493 1495 1496 1497 1499 1501 1503 1506 1509 1513 1517 1522 1526 1530 1535 1540 1544 1549 1553 1556 1560 1563 1566 1568 1570 1572 1574 1576 1577 1578 1579 1580 1581
1500 1499 1501 1502 1495 1496 1497 1495 1496 1496 1493 1492 1493 1495 1496 1497 1499 1500 1503 1506 1510 1514 1518 1522 1527 1532 1537 1541 1546 1550 1554 1557 1560 1563 1566 1568 1571 1572 1574 1575 1577 1578 1579 1579
1499 1501 1509 1493 1487 1489 1491 1491 1491 1490 1490 1491 1492 1494 1495 1496 1497 1499 1501 1504 1507 1511 1515 1520 1524 1529 1534 1538 1542 1547 1551 1554 1557 1560 1563 1566 1568 1570 1572 1574 1575 1576 1577 1578
1498 1500 1495 1488 1486 1488 1489 1487 1485 1487 1488 1490 1491 1492 1493 1494 1495 1497 1499 1501 1505 1509 1513 1518 1522 1526 1531 1535 1539 1543 1547 1550 1554 1557 1560 1563 1565 1568 1570 1571 1573 1574 1575 1576
1497 1500 1499 1486 1484 1486 1488 1487 1482 1483 1485 1487 1489 1489 1491 1493 1494 1496 1498 1500 1503 1507 1511 1515 1519 1523 1528 1531 1535 1539 1543 1547 1550 1554 1557 1560 1562 1565 1567 1569 1570 1572 1573 1574
1494 1494 1486 1481 1484 1487 1490 1484 1481 1482 1483 1485 1487 1488 1491 1491 1493 1495 1497 1499 1502 1505 1509 1513 1517 1521 1525 1529 1532 1536 1540 1544 1547 1550 1554 1557 1559 1561 1564 1565 1567 1569 1570 1571
1489 1492 1489 1481 1483 1483 1481 1480 1481 1482 1483 1485 1486 1488 1490 1491 1492 1494 1496 1498 1501 1504 1507 1511 1515 1519 1523 1526 1530 1534 1537 1540 1544 1547 1550 1553 1556 1558 1560 1562 1564 1565 1566 1567
1478 1480 1478 1480 1480 1481 1481 1481 1481 1482 1483 1484 1486 1488 1490 1491 1492 1493 1495 1498 1500 1503 1506 1510 1513 1517 1521 1525 1528 1531 1534 1537 1541 1544 1547 1549 1552 1554 1556 1558 1560 1561 1563 1564
1476 1476 1478 1479 1480 1480 1480 1481 1481 1482 1483 1484 1486 1488 1489 1490 1492 1493 1495 1498 1500 1503 1506 1509 1512 1515 1519 1522 1525 1529 1532 1535 1538 1541 1543 1546 1548 1550 1552 1554 1556 1557 1559 1560
1473 1475 1477 1477 1478 1479 1479 1480 1481 1482 1483 1484 1486 1487 1489 1490 1492 1493 1495 1498 1500 1503 1505 1508 1511 1514 1517 1520 1523 1526 1529 1532 1535 1537 1540 1542 1544 1547 1549 1550 1552 1554 1555 1556
1470 1471 1473 1475 1476 1477 1479 1480 1481 1482 1483 1484 1486 1487 1489 1490 1492 1494 1496 1498 1500 1503 1505 1508 1510 1513 1515 1518 1521 1524 1526 1529 1532 1534 1537 1539 1541 1543 1545 1547 1548 1550 1551 1552
1469 1470 1472 1473 1475 1477 1478 1479 1480 1482 1483 1484 1486 1487 1489 1490 1492 1494 1496 1498 1500 1503 1505 1507 1509 1511 1514 1516 1519 1522 1524 1526 1529 1531 1533 1535 1537 1539 1541 1543 1544 1545 1546 1548
1468 1469 1471 1472 1474 1476 1477 1479 1480 1482 1483 1485 1486 1488 1489 1491 1493 1494 1496 1498 1500 1502 1504 1506 1508 1510 1513 1515 1517 1520 1522 1524 1526 1528 1530 1532 1534 1536 1537 1539 1540 1541 1542 1543
1467 1468 1469 1470 1473 1475 1477 1478 1480 1481 1483 1485 1486 1488 1490 1491 1493 1494 1496 1498 1500 1502 1504 1505 1507 1509 1511 1513 1515 1518 1520 1521 1523 1525 1527 1529 1531 1532 1534 1535 1536 1537 1538 1539
1464 1466 1467 1469 1471 1473 1476 1478 1479 1481 1483 1484 1486 1488 1490 1491 1493 1495 1496 1498 1499 1501 1503 1504 1506 1508 1510 1512 1514 1516 1517 1519 1521 1523 1524 1526 1527 1529 1530 1531 1532 1533 1534 1535
1462 1464 1465 1468 1470 1472 1475 1477 1479 1480 1482 1484 1486 1487 1489 1491 1493 1495 1496 1498 1500 1501 1502 1504 1506 1508 1509 1511 1512 1514 1515 1517 1519 1520 1522 1523 1524 1526 1527 1528 1529 1529 1530 1531
1459 1461 1463 1465 1467 1470 1473 1476 1478 1480 1482 1483 1485 1487 1489 1491 1493 1494 1496 1498 1499 1501 1502 1504 1505 1506 1508 1509 1511 1512 1514 1515 1516 1518 1519 1520 1521 1522 1523 1524 1525 1526 1526 1526
1456 1459 1461 1464 1466 1469 1472 1474 1477 1479 1481 1483 1485 1487 1489 1491 1493 1494 1496 1498 1499 1500 1502 1503 1504 1505 1506 1508 1509 1510 1512 1513 1514 1515 1516 1517 1518 1519 1520 1520 1521 1521 1522 1522
1454 1457 1459 1462 1465 1468 1470 1473 1475 1478 1480 1483 1485 1487 1489 1491 1493 1494 1496 1497 1498 1500 1501 1502 1503 1504 1505 1506 1507 1508 1509 1511 1512 1512 1513 1514 1515 1516 1516 1517 1517 1517 1517 1517
1452 1455 1457 1460 1463 1467 1469 1472 1474 1477 1479 1482 1484 1486 1488 1490 1492 1494 1495 1496 1498 1499 1500 1501 1502 1503 1503 1504 1505 1506 1507 1508 1509 1509 1510 1511 1512 1512 1512 1513 1513 1513 1513 1513
1451 1454 1456 1459 1462 1466 1469 1471 1474 1476 1479 1481 1484 1486 1488 1490 1491 1493 1495 1496 1497 1498 1499 1500 1501 1501 1502 1502 1503 1504 1505 1505 1506 1507 1507 1508 1508 1509 1509 1509 1509 1509 1509 1508
1450 1453 1456 1459 1462 1465 1468 1471 1473 1476 1478 1480 1483 1485 1487 1489 1490 1492 1494 1495 1496 1497 1498 1499 1500 1500 1501 1501 1502 1502 1503 1503 1504 1504 1504 1505 1505 1505 1505 1505 1505 1505 1504 1504
1449 1452 1455 1458 1461 1464 1467 1470 1473 1476 1478 1480 1482 1485 1486 1488 1490 1491 1493 1494 1495 1496 1497 1498 1498 1499 1499 1500 1500 1500 1501 1501 1501 1502 1502 1502 1502 1502 1502 1502 1501 1501 1500 1500
1449 1452 1455 1458 1461 1463 1467 1470 1472 1475 1477 1479 1482 1484 1486 1488 1489 1490 1492 1493 1494 1495 1496 1496 1497 1498 1498 1498 1499 1499 1499 1499 1499 1499 1499 1499 1499 1499 1498 1498 1498 1497 1496 1496
1449 1452 1455 1458 1460 1463 1466 1469 1472 1474 1476 1478 1481 1483 1485 1487 1489 1490 1491 1492 1493 1494 1494 1495 1496 1496 1497 1497 1497 1497 1497 1497 1497 1497 1497 1497 1496 1496 1495 1495 1494 1493 1493 1492
1450 1452 1455 1458 1461 1463 1466 1469 1471 1473 1476 1477 1479 1482 1484 1486 1488 1489 1490 1491 1492 1492 1493 1494 1494 1495 1495 1495 1495 1495 1495 1495 1495 1495 1494 1494 1494 1493 1493 1492 1491 1490 1489 1488